Погода в Андреевке

Россия / Новосибирская область     53°50′29″N   77°26′45″E
темп.,
°C
ветер,
м/с
пор.,
м/с
влажн.,
%
обл.,
%
осадки,
мм/ч
давл.,
гПа
погр.,
м
22 апреля, чт
чт2201:00−2с611745 0.0 1031594
04:00−2ссв6108242 0.0 1033580
07:00−2ссв510825 0.0 1037452
10:00+1ссв68625 0.0 1039820
13:00+4св674398 0.0 10411890
16:00+5св673598 0.0 10422145
19:00+5св663676 0.0 10431956
22:00+2ссв37575 0.0 1045171
23 апреля, пт
пт2301:000св37640 0.0 1045162
04:00−1св34720 0.0 1045104
07:00−1св34762 0.0 1046117
10:00+3св34543 0.0 1047770
13:00+6св44415 0.0 10451449
16:00+7св44375 0.0 10431672
19:00+7св443716 0.0 10431722
22:00+4св33525 0.0 104345
24 апреля, сб
сб2401:00+2всв34621 0.0 104251
04:00+1всв33705 0.0 104128
07:000в22731 0.0 104033
10:00+5в22530 0.0 1039494
13:00+7св11405 0.0 10381487
16:00+9ссв21335 0.0 10361678
19:00+9св223297 0.0 10341655
22:00+7всв3444100 0.0 103465
25 апреля, вс
вс2501:00+5юв3552100 0.0 1033107
04:00+4юв3456100 0.0 103365
07:00+3юв3559100 0.0 1032105
10:00+6юв5645100 0.0 1031529
13:00+9ююв6735100 0.0 10301448
16:00+11ююв6730100 0.0 10281671
19:00+11ююв5731100 0.0 10271682
22:00+8вюв484290 0.0 1027180
26 апреля, пн
пн2601:00+7юв41050100 0.0 1025224
04:00+5юв4105883 0.0 1024199
07:00+5юв61359100 0.0 1024294
10:00+9юв7104853 0.0 1023484
13:00+14юв77315 0.0 10221039
16:00+16ююв552795 0.0 10221444
19:00+17ююв3428100 0.0 10211735
22:00+13ю2238100 0.0 102217